Anahuac, Texas
Current Conditions -  °F | °C
As of 11:50 AM on Friday 19 Dec 2014 (Local Time) from KEFD Reporting Station
Light Rain Light Rain  
Wind Chill: 59°   Ceiling: 500
Heat Index: 59°   Visibility: 3mi
Dew Point: 57°   Wind: 12mph
Humidity: 94%   Direction: 10°N
Pressure: 30.06"   Gusts: NA
Location:  29.77°N, 94.68°W
Report Text: KEFD 191750Z 01010KT 3SM -RA BKN005 OVC012 15/14 A3006
Loading
Personal Weather Stations






























Interactive Weather Map New forecast layout! Learn more

10-Day Weather Forecast

Advertisements
Track Severe Weather on mobile